Theta_e
356 361 365 365 363 362 362 361 362 361 361 362 362 362 362 362 363 363 363 363 363 362 359 356 354 354 355 355 355 357 358 358 357 354 352 353 352 352 355 351 348 346 349
359 361 364 364 363 363 362 362 362 360 361 361 362 362 361 361 362 363 363 363 362 360 358 355 352 354 355 355 355 355 355 356 357 356 353 350 352 352 353 349 349 347 347
358 360 362 363 363 362 362 361 361 360 360 361 362 362 361 361 361 361 362 362 362 359 356 353 353 354 354 354 353 353 353 355 354 355 353 346 344 351 350 349 349 349 348
359 359 360 363 362 362 361 361 361 360 360 360 361 362 362 361 361 361 360 360 357 355 353 352 353 353 353 352 352 351 352 352 353 353 349 348 345 350 350 349 349 349 349
357 358 360 363 362 362 361 360 360 360 360 360 361 362 362 362 361 360 360 359 356 353 351 351 352 353 353 353 352 352 352 352 350 344 338 340 343 350 351 350 350 350 349
356 359 362 362 362 362 361 361 360 360 360 360 361 361 361 361 361 360 360 358 356 353 351 352 352 353 353 353 353 352 351 349 347 330 329 342 341 353 354 352 351 349 348
355 359 361 362 362 362 361 361 360 360 360 360 361 361 360 360 360 360 359 358 356 354 351 350 351 353 354 353 351 349 346 345 335 329 328 334 342 353 356 356 354 351 349
355 358 360 363 362 361 361 360 360 359 359 360 360 360 360 359 359 359 359 358 356 354 352 350 350 348 347 346 345 343 343 344 334 329 329 330 345 353 356 357 356 354 351
356 355 358 360 362 362 361 360 359 359 359 359 359 359 359 359 359 359 358 357 355 353 352 350 348 346 344 343 342 341 342 344 333 330 330 330 348 353 357 356 355 355 354
353 353 355 357 360 359 358 360 359 359 359 358 358 358 358 358 358 358 355 356 355 354 352 350 348 346 344 343 342 343 345 345 334 331 328 326 348 353 358 357 356 355 355
351 351 353 355 356 356 357 359 360 361 360 359 359 358 355 354 354 354 354 356 356 354 352 350 349 347 345 345 345 345 346 334 330 328 326 336 345 352 356 355 354 354 355
347 348 350 352 353 354 358 357 357 357 357 356 355 354 352 350 351 353 353 356 355 354 352 351 349 348 346 333 332 344 336 333 331 328 326 340 350 352 355 353 351 351 351
349 348 348 349 350 351 352 355 355 356 355 355 354 353 351 350 350 350 348 350 349 352 344 346 344 341 336 332 328 324 328 333 331 329 331 342 350 352 355 352 350 351 351
346 348 347 347 347 349 351 352 352 353 352 351 352 352 349 348 345 345 345 344 345 344 341 340 338 336 334 331 327 324 325 329 330 329 330 343 349 352 356 356 354 354 353
319 338 345 346 345 346 345 350 350 350 352 352 352 352 350 347 344 344 343 343 342 341 340 336 335 334 332 331 328 326 326 329 331 331 335 349 350 351 355 358 356 356 355
322 332 343 342 342 342 342 347 347 348 350 350 351 351 351 349 347 344 341 341 340 340 339 335 332 328 328 327 325 327 329 332 334 337 338 345 350 350 352 356 357 357 357
317 323 338 345 345 342 341 345 344 343 346 347 349 350 352 351 348 346 342 340 340 339 336 335 329 328 327 328 328 329 330 334 340 340 341 338 344 349 349 352 355 357 357
315 321 323 340 341 341 343 350 351 346 342 343 344 346 349 351 350 344 344 341 340 339 337 335 332 327 328 332 330 330 332 338 341 342 343 343 343 344 348 351 353 355 356
313 319 321 323 322 326 330 333 345 352 351 347 344 341 343 347 349 347 344 343 340 337 337 334 333 331 327 329 332 333 334 337 342 344 343 344 344 343 343 348 351 351 353
317 318 320 326 328 327 325 325 333 347 347 348 346 345 343 344 345 344 344 342 340 340 337 335 333 332 330 330 332 332 332 336 338 340 343 345 345 345 343 343 346 347 350
319 318 318 320 322 321 320 318 319 328 341 346 347 348 346 343 344 342 342 342 339 339 339 337 336 332 332 328 327 327 327 331 334 339 341 341 343 344 342 341 343 344 345
314 314 315 316 315 319 321 323 324 326 327 334 341 345 349 344 344 343 342 340 341 339 338 337 335 334 329 329 329 322 319 326 327 334 337 337 338 339 339 342 340 340 339
312 313 316 315 316 318 320 319 318 318 318 319 323 333 341 349 345 345 345 342 340 341 340 338 336 334 331 328 329 325 318 318 318 323 332 336 337 338 339 339 341 341 340
310 311 310 317 319 318 318 317 318 317 316 319 320 323 324 327 336 344 345 344 341 341 340 340 336 334 333 330 326 331 326 322 317 316 330 331 336 337 337 337 339 340 339
308 308 315 317 314 315 318 320 317 315 317 318 319 321 322 322 324 328 337 342 344 341 341 339 337 334 335 332 332 330 330 329 330 324 319 328 332 335 337 337 338 338 337
307 308 311 312 314 315 319 314 314 314 314 315 318 318 320 323 325 325 326 331 334 341 342 340 339 336 335 334 334 332 329 327 326 329 324 323 328 331 336 336 334 333 332
Wind_Speed
7 9 14 15 17 17 17 17 17 17 17 16 17 16 16 17 17 16 16 16 15 14 14 12 12 12 12 11 11 10 10 10 11 11 10 9 9 10 11 13 11 7 10
16 11 14 16 18 18 17 16 15 16 16 16 16 16 15 16 16 16 15 15 14 14 13 13 12 12 12 11 11 10 10 9 8 8 8 8 8 9 12 11 12 8 9
15 13 11 15 18 18 18 16 15 15 15 15 15 14 14 14 15 15 15 14 14 13 13 12 12 11 11 9 8 8 8 7 5 4 6 4 3 8 10 11 13 11 9
15 13 9 14 17 19 18 17 15 15 15 14 14 13 13 13 13 13 13 13 13 12 12 12 12 11 9 7 5 6 5 4 3 1 1 3 5 8 9 10 11 11 10
13 12 10 13 16 18 18 18 17 16 15 14 14 14 14 13 13 12 12 12 12 12 12 11 10 9 8 7 4 3 2 1 1 2 3 6 5 8 11 11 11 9 10
11 12 13 12 14 16 18 18 17 17 17 16 14 13 13 12 11 10 11 10 10 11 11 11 10 9 8 7 4 3 3 3 3 1 4 3 8 11 13 12 12 11 11
11 11 11 13 13 14 16 16 16 16 17 17 15 14 13 11 10 9 9 9 8 9 9 9 9 7 6 5 4 5 6 6 3 2 3 3 4 11 13 11 12 11 10
15 13 12 15 14 13 15 15 15 15 15 16 15 15 14 12 11 11 10 10 10 9 8 8 8 8 7 7 7 7 7 7 5 3 5 3 7 12 13 12 11 11 11
13 14 12 11 13 15 14 15 15 15 15 15 16 16 16 15 13 11 10 10 10 9 9 9 9 9 9 9 8 8 9 8 5 2 4 4 9 13 13 13 13 12 12
13 14 13 12 10 9 9 14 15 15 15 15 15 15 14 15 16 16 13 12 12 11 11 11 11 10 10 10 10 10 10 10 6 4 3 4 9 13 14 13 13 12 12
9 11 13 15 14 11 9 10 14 16 16 16 15 16 12 7 9 11 14 17 16 15 14 13 13 12 12 11 11 12 11 4 5 4 3 10 12 16 15 14 14 13 12
10 10 11 12 13 14 11 10 9 9 8 8 8 9 6 6 7 10 12 15 16 18 17 16 15 14 12 5 5 10 4 5 4 4 4 11 13 16 15 15 14 12 12
12 9 13 14 13 14 11 9 7 6 7 7 8 9 8 7 6 6 4 6 7 14 6 9 9 7 8 6 5 5 5 5 5 5 7 13 13 15 16 16 15 13 12
11 14 12 13 13 13 8 9 10 10 9 7 9 6 4 4 5 6 5 7 7 6 8 8 6 7 8 8 8 8 7 6 5 5 8 16 17 18 18 18 16 14 12
8 13 15 14 13 11 8 7 7 8 8 9 9 11 9 6 4 4 5 5 6 5 6 7 7 8 9 9 8 8 9 8 8 5 5 15 19 20 19 18 17 15 14
4 7 11 10 6 6 5 7 7 7 9 9 9 10 13 10 10 8 6 6 6 6 6 5 5 4 4 4 6 5 7 8 9 8 4 5 16 16 18 16 16 15 15
3 7 8 10 9 6 6 5 3 4 6 8 9 11 13 12 10 11 9 9 9 8 7 5 5 4 5 4 7 8 9 10 8 7 6 5 6 14 16 16 16 15 16
6 8 7 7 8 8 6 4 2 4 4 5 4 6 12 13 12 10 9 9 8 8 8 8 6 7 6 7 8 9 8 6 8 6 6 6 5 6 12 16 17 16 17
9 8 8 8 8 7 5 3 1 5 5 4 5 5 8 10 13 11 10 9 7 8 8 9 8 9 9 9 10 8 7 8 8 8 10 8 8 8 7 10 17 18 18
9 9 9 7 8 6 4 3 2 1 4 3 5 5 6 10 11 10 10 11 8 8 8 7 10 8 8 9 9 10 8 5 5 6 10 8 10 11 9 9 6 7 15
7 9 9 10 6 4 2 2 2 0 1 2 5 5 6 7 10 10 10 8 7 9 12 10 8 9 8 2 1 4 4 6 6 9 8 11 10 12 9 7 6 5 6
8 7 8 8 8 5 4 3 3 2 2 3 3 5 6 7 9 9 11 9 9 9 12 12 11 10 5 7 9 2 4 8 4 9 8 8 11 7 7 8 7 7 7
9 9 8 7 6 5 5 3 2 2 2 4 3 3 4 5 6 9 12 9 10 8 11 13 11 14 14 6 9 6 2 9 0 3 10 11 13 8 9 7 8 8 8
8 8 8 7 7 5 6 4 4 3 2 3 3 3 5 6 6 5 9 12 10 11 13 12 9 10 10 14 2 10 6 4 5 4 3 7 11 12 10 5 7 8 7
8 8 8 9 8 6 5 6 5 3 3 3 4 6 7 5 5 6 7 9 12 9 13 13 11 12 13 13 14 11 12 11 2 4 5 4 4 8 10 9 8 6 6
6 6 6 7 5 5 6 5 4 5 6 4 5 4 4 5 7 7 7 8 10 11 13 13 14 18 15 14 14 15 12 11 13 11 5 2 6 7 7 6 7 6 6
Wind_Direction
153 157 155 142 126 122 119 119 118 116 111 108 107 108 110 111 113 114 111 109 109 110 110 107 106 109 108 106 104 102 102 104 104 105 111 112 103 86 132 101 102 98 95
137 150 157 146 133 129 126 126 124 121 117 115 114 113 113 114 115 115 115 114 115 120 122 120 120 120 120 123 119 112 103 95 101 117 116 117 123 106 109 114 111 108 103
136 146 156 150 138 134 131 129 126 124 123 123 122 122 124 123 122 123 124 125 127 129 127 125 124 125 125 122 118 112 107 105 103 102 129 136 151 132 130 129 124 120 112
136 138 146 154 143 139 136 134 132 132 131 131 130 128 127 125 123 122 121 123 128 130 130 131 132 132 134 135 137 123 112 107 112 148 228 217 190 160 153 142 132 134 137
131 134 144 157 150 144 143 141 142 142 141 141 140 139 139 137 135 134 132 133 136 138 139 138 136 140 146 152 163 154 138 167 302 344 248 229 192 177 171 152 147 148 156
132 131 144 158 156 151 151 150 151 150 150 148 148 147 146 144 141 139 137 139 143 146 147 146 149 157 164 171 191 226 241 253 306 324 323 32 175 179 180 169 163 160 160
137 134 145 157 162 159 157 156 156 157 156 155 153 151 149 147 146 144 142 141 145 149 153 155 160 166 175 186 218 254 276 294 310 354 328 198 196 197 182 175 167 173 171
147 148 155 163 166 165 162 162 162 162 162 159 159 156 155 155 157 158 158 158 158 160 165 168 170 180 188 203 224 245 268 288 309 336 308 296 203 216 184 185 179 182 188
148 152 159 166 170 171 170 167 168 168 167 168 167 166 164 164 165 168 169 170 169 171 176 183 190 193 198 210 223 238 254 263 269 242 273 277 215 213 202 192 191 194 197
155 160 161 162 165 168 173 175 173 174 175 174 175 174 173 173 172 173 176 181 182 183 189 194 199 205 211 214 225 235 248 263 269 268 265 261 226 217 220 202 204 205 206
167 169 170 166 166 165 169 181 180 182 181 181 182 180 172 178 184 191 186 184 189 191 194 200 204 208 212 221 228 233 240 238 244 249 233 239 234 223 220 209 209 209 216
180 183 182 177 174 167 171 175 179 188 187 187 186 180 180 187 194 192 194 201 196 194 198 203 207 212 213 212 232 242 232 232 239 236 236 245 238 212 219 213 214 213 215
183 184 193 188 185 177 177 169 178 185 189 194 190 186 191 188 195 199 208 206 207 210 209 211 210 212 210 207 229 238 236 221 228 234 240 232 214 213 224 218 214 214 217
181 206 190 191 185 191 171 177 173 179 184 191 199 192 194 209 213 205 209 214 208 211 207 203 208 214 223 221 214 218 230 231 232 231 238 232 214 210 219 220 217 213 216
177 203 195 188 188 195 177 174 180 184 183 188 189 187 181 196 215 224 227 225 224 222 230 235 231 214 227 220 232 230 231 226 243 237 245 240 208 201 213 218 219 218 217
145 177 173 176 170 172 180 194 187 189 186 184 189 195 199 201 201 193 195 219 234 218 212 221 241 263 234 276 261 241 255 264 247 231 225 234 205 207 216 215 223 221 223
96 109 138 151 157 170 192 204 220 226 197 191 195 194 199 205 210 213 211 207 219 219 216 222 221 210 240 228 239 236 226 239 250 242 220 227 221 222 220 213 221 224 226
122 108 97 113 117 126 127 149 155 202 228 242 218 198 203 206 209 212 219 221 214 205 201 210 215 230 231 224 239 243 244 225 233 237 219 206 213 218 232 227 219 219 228
135 125 100 97 103 115 109 104 223 224 195 203 212 213 224 224 221 214 217 228 206 210 212 213 216 214 222 225 230 235 235 233 237 235 236 230 215 222 222 225 219 218 222
121 131 120 105 101 78 60 45 32 27 262 213 222 231 225 222 225 226 231 226 219 219 225 218 224 221 233 232 232 234 227 224 225 236 238 235 231 232 225 209 217 226 224
118 110 118 119 133 117 82 69 52 76 211 298 300 263 234 223 228 219 232 236 232 235 227 218 215 222 228 200 153 268 269 251 237 229 242 242 242 237 217 230 205 194 212
141 132 123 125 140 144 142 160 155 175 248 235 256 276 259 226 231 235 238 232 225 234 236 232 217 224 229 181 221 148 240 249 255 243 238 235 233 228 223 211 202 206 204
150 158 143 151 149 137 134 109 75 41 352 355 307 286 278 265 248 245 256 239 238 233 234 235 230 226 233 221 207 185 161 233 265 215 227 228 229 226 235 211 200 206 203
164 152 143 155 153 155 146 126 132 155 207 245 252 259 285 284 273 257 256 257 236 238 232 235 229 222 232 235 198 231 225 149 197 285 271 232 222 222 219 212 204 202 188
153 147 143 154 165 165 156 152 154 175 215 243 277 295 301 290 259 262 261 264 255 235 246 238 234 222 225 226 231 227 224 229 186 170 244 280 297 235 222 204 203 186 180
146 138 144 142 164 175 170 183 188 228 254 267 273 287 289 301 309 300 267 265 274 268 242 239 239 236 228 229 233 235 231 223 226 224 211 178 272 250 209 186 183 183 185